Location: Great Falls
(47.5000°N, 111.3000°W)
Time: 13:08:33
(UTC-07:00)

Tiangong 2 - Visible Passes

Search period start: 17 January 2018 00:00
Search period end: 27 January 2018 00:00
Orbit: 384 x 390 km, 42.8° (Epoch: 16 January)

Date Brightness Start Highest point End Pass type
(mag) Time Alt. Az. Time Alt. Az. Time Alt. Az.
17 Jan 3.8 07:14:54 10° SSW 07:17:13 19° SSE 07:19:33 10° ESE visible
18 Jan 4.0 06:17:09 10° S 06:18:45 13° SSE 06:20:22 10° ESE visible
19 Jan 3.1 06:53:44 10° SW 06:56:25 25° SSE 06:59:06 10° ESE visible
20 Jan 3.3 05:57:12 18° S 05:57:54 19° SSE 06:00:14 10° ESE visible
20 Jan 2.6 07:31:16 10° WSW 07:34:13 34° S 07:37:10 10° ESE visible
21 Jan 2.6 06:33:42 16° SW 06:35:37 30° S 06:38:29 10° ESE visible
22 Jan 3.3 05:37:48 23° SE 05:37:48 23° SE 05:39:44 10° ESE visible
22 Jan 2.4 07:10:30 10° WSW 07:13:26 34° S 07:16:23 10° ESE visible
23 Jan 2.3 06:14:07 30° SSW 06:14:49 34° S 06:17:45 10° ESE visible
24 Jan 4.0 05:18:07 17° ESE 05:18:07 17° ESE 05:19:04 10° ESE visible
24 Jan 2.4 06:50:23 14° WSW 06:52:37 31° S 06:55:30 10° SE visible
25 Jan 2.4 05:54:21 33° SSE 05:54:21 33° SSE 05:56:55 10° ESE visible
26 Jan 2.7 06:30:34 20° SW 06:31:44 26° SSW 06:34:27 10° SE visible
